Terug naar catalogus

LUCH 1

ActiefCommunicatieGEO
NORAD 23680·PAYLOAD·🇷🇺 Russia

Gelanceerd Oct 11, 1995 vanaf Baikonur Cosmodrome

Loading…

TLE

VersSource: Space-Track

Epoch: Sep 13, 2026, 18:14 UTC

1 23680U 95054A   26256.76031815 -.00000096  00000-0  00000-0 0  9990
2 23680  15.0472 358.5263 0006785 158.8251 181.8096  1.00271089113239

Volg LUCH 1 in realtime met AllMySat

Download on the App Store